Orbital Elements
Epoch 2016 Jan. 13.0 TT = JDT 2457400.5
T 2015 Dec. 24.11342 TT MPCW
q 1.8865482 (2000.0) P Q
n 0.11436307 Peri. 30.61013 +0.96980996 -0.22430111
a 4.2035110 Node 341.60101 +0.11178649 +0.75766122
e 0.5511970 Incl. 17.64912 +0.21673122 +0.61289353
P 8.62
From 338 observations 1998 Aug. 2-2015 Dec. 1, mean residual 0".6.
|